Location: Arbocrest Acres
(39.2134°N, 84.4144°W)
Time: 05:41:20
(UTC+00:00)

Hubble Space Telescope - Visible Passes

Search period start: 09 December 2022 00:00
Search period end: 19 December 2022 00:00
Orbit: 530 x 534 km, 28.5° (Epoch: 08 December)

Date Brightness Start Highest point End Pass type
(mag) Time Alt. Az. Time Alt. Az. Time Alt. Az.
09 Dec 3.2 11:13:38 10° SSW 11:16:12 16° S 11:18:46 10° SE visible
10 Dec 3.1 11:01:19 12° SSW 11:03:26 17° S 11:06:07 10° SE visible
11 Dec 2.9 10:49:31 16° SSW 10:50:40 18° S 10:53:26 10° SE visible
12 Dec 2.8 10:37:40 18° S 10:37:53 18° S 10:40:42 10° SE visible
12 Dec 3.2 12:16:03 10° SW 12:18:15 14° SSW 12:20:27 10° SSE visible
13 Dec 3.0 10:25:46 17° SSE 10:25:46 17° SSE 10:27:55 10° SE visible
13 Dec 3.2 12:03:35 10° SW 12:05:27 13° SSW 12:07:18 10° SSE visible
14 Dec 3.3 10:13:50 15° SSE 10:13:50 15° SSE 10:15:06 10° SE visible
14 Dec 3.3 11:51:20 10° SW 11:52:38 11° SSW 11:53:57 10° S visible
15 Dec 3.7 10:01:53 11° SSE 10:01:53 11° SSE 10:02:13 10° SE visible
